sat.trackr.live / text

‹ back to catalog

STARLINK-32391

NORAD 61855 · 2024-202L

PAYLOAD ACTIVE UNKNOWN

§ Identity

Operator
Country
US
Launch date
2024-11-07
Launch site
AFETR
Launch vehicle
Mass (kg)
RCS (m²)

Purposes: comms

External: N2YO · Heavens-Above · Gunter

§ Orbital elements

Epoch: 2026-05-25T02:05:29.923296Z

Period
94.27 min
Inclination
43.0017°
Eccentricity
0.0001328
Mean motion
15.27582243 rev/d
Perigee alt
482.1 km
Apogee alt
484.0 km
Semi-major
6,861.2 km
B*
5.6178e-6
RAAN
166.3642°
Arg perigee
288.3288°
Mean anomaly
71.7419°
Rev number
8,701

§ Raw data

STARLINK-323911 61855U 24202L   26145.08715189 -.00000108  00000+0  56178-5 0  99932 61855  43.0017 166.3642 0001328 288.3288  71.7419 15.27582243 87017

JSON: /api/v1/satellites/61855 · /tle

For live sub-satellite position, see the globe view (requires WebGL).

§ Visibility from observer

Set your observer location to see the next 7 days of passes ≥ 10°. The values pass through the URL so the page stays shareable.

No JS? Fill the form by hand. The geolocation button needs JavaScript.